User: anonymous   Login
Location: Unspecified
(0.0000°N, 0.0000°E)
Time: 06:55:14
(UTC+00:00)
Language:

STARLINK-3829 - Orbit

View from above orbital plane
View from above orbital plane
View from above satellite
View from above satellite

Ground track
Ground track

The orbit is defined by the following mean orbital elements,

1 52348U          26145.60468500 +.00000000 +00000-0 +61629-4 0 00000
2 52348  53.2133 213.8350 0001116  86.2141 273.8979 15.08840966    06
Epoch (UTC): 25 May 2026 14:30:44
Eccentricity: 0.0001116
inclination: 53.2133°
perigee height: 539 km
apogee height: 541 km
right ascension of ascending node: 213.8350°
argument of perigee: 86.2141°
revolutions per day: 15.08840966
mean anomaly at epoch: 273.8979°

The dashed part of the orbit path shows where the satellite is in the earth's shadow,  

DLR